Location: Marcé
(47.5801°N, 0.3280°W)
Time: 16:00:34
(UTC+02:00)

FENGYUN 1C DEB - Pass Details

Date: 06 July 2022
Orbit: 567 x 661 km, 99.1° (Epoch: 16 August)

Event Time Altitude Azimuth Distance (km) Brightness Sun altitude
Rises 22:36:18 0° 3° (N) 2,947 ? -5.5°
Reaches altitude 10° 22:38:56 10° 349° (NNW) 2,015 ? -5.8°
Maximum altitude 22:42:14 21° 299° (WNW) 1,381 ? -6.2°
Drops below altitude 10° 22:45:27 10° 250° (WSW) 1,956 ? -6.6°
Sets 22:47:59 0° 234° (SW) 2,836 ? -6.9°
